Lid_Strength_Index
8 11 12 10 9 9 10 12 12 11 10 11 11 11 10 10 11 11 11 11 11 12 12 11 11 10 8 8 7 7 8 8 7 8 8 8 10 11 11 10 10 10 9 8
11 12 9 8 8 10 11 12 12 10 11 12 12 12 10 10 11 10 10 11 11 13 13 12 11 10 9 9 8 8 7 7 7 7 8 9 10 12 12 12 12 12 11 11
11 9 8 9 11 11 12 12 12 12 12 12 13 14 12 10 9 10 10 10 11 13 13 13 12 11 10 9 9 9 8 7 8 9 10 11 12 12 13 14 14 13 13 12
10 8 10 11 11 11 13 10 10 11 13 16 13 17 13 11 10 10 11 12 12 13 13 13 13 12 11 11 9 8 8 9 9 10 11 12 13 14 14 14 14 14 14 13
12 11 12 11 11 10 12 10 11 12 14 15 15 16 14 11 11 11 13 12 13 13 13 13 13 12 12 12 11 10 11 11 10 10 11 13 14 14 15 15 15 15 15 14
11 10 11 11 11 10 10 11 13 14 14 18 15 15 16 12 11 11 12 12 13 13 14 14 13 13 13 13 13 12 12 12 12 12 13 14 15 15 15 15 16 16 16 15
12 12 10 10 12 11 12 13 18 19 20 20 16 16 14 13 13 12 12 12 13 13 14 14 15 15 14 14 14 13 13 14 13 13 13 14 14 15 15 15 16 16 16 16
14 15 11 11 11 13 14 13 17 22 21 19 18 19 15 13 13 13 11 12 13 14 14 15 15 15 15 14 14 15 15 15 14 14 14 14 14 15 15 15 15 16 16 16
13 14 11 12 11 11 14 15 12 17 21 21 17 16 13 14 15 14 13 13 14 14 14 14 14 15 15 15 15 15 15 15 15 15 15 15 15 15 15 15 15 16 16 15
11 15 12 13 12 12 13 12 17 17 23 23 18 17 16 16 15 15 14 14 14 14 14 14 14 14 15 15 15 15 15 15 15 15 15 15 15 15 15 15 16 16 16 16
11 13 16 14 15 14 15 15 14 14 16 20 21 17 13 13 13 15 14 13 14 14 14 14 14 15 15 15 15 16 16 16 16 15 15 16 16 16 15 16 16 16 16 16
10 12 17 16 13 13 13 14 14 17 18 16 18 16 13 13 12 13 13 13 13 13 13 13 14 14 15 15 15 16 16 16 16 16 16 16 16 16 16 16 16 16 16 16
10 13 17 17 16 15 15 14 12 12 15 17 19 17 14 14 13 13 13 13 13 13 13 13 14 15 15 15 15 16 16 16 16 16 16 17 17 16 16 16 16 16 16 16
9 12 14 17 15 13 16 15 13 13 17 17 16 15 16 15 14 13 13 12 12 12 13 13 14 14 15 15 15 16 16 16 16 16 17 17 17 16 16 16 16 16 16 17
10 15 13 12 12 12 15 15 14 15 14 16 15 14 12 13 14 13 12 12 12 13 13 13 13 14 15 15 15 15 15 16 15 16 17 16 16 16 16 16 16 16 16 16
12 15 13 15 13 13 14 12 14 14 14 14 14 14 11 11 12 13 12 12 13 13 13 13 13 14 14 15 15 15 15 16 15 16 16 16 16 16 16 16 16 16 16 16
13 14 15 17 14 14 17 14 13 13 13 13 16 13 11 11 13 13 12 12 13 13 12 13 13 13 13 14 14 15 15 15 16 16 16 17 16 16 16 16 16 16 17 16
14 14 15 17 15 21 14 11 11 12 11 11 12 12 13 12 12 12 11 12 12 13 13 12 12 12 13 13 14 14 15 16 16 16 16 17 16 16 17 17 17 17 16 16
10 13 15 18 18 15 14 17 14 14 13 10 11 11 14 14 13 14 12 11 12 12 11 11 12 12 12 13 13 14 15 16 16 16 16 16 16 17 16 17 17 17 16 16
12 11 15 16 19 20 17 17 14 12 16 13 11 11 16 14 15 14 13 13 12 12 13 13 13 14 13 14 14 14 15 15 16 16 15 15 16 16 16 16 17 16 17 15
17 15 16 16 18 16 18 19 15 17 17 18 16 15 15 14 13 13 14 14 14 14 14 15 14 14 15 15 15 16 16 15 16 16 16 16 16 15 15 16 17 16 17 16
16 16 16 15 18 19 17 18 15 16 18 16 16 16 16 16 16 16 16 15 15 15 15 15 16 16 16 16 16 17 16 16 17 17 17 17 17 15 15 15 18 17 17 19
17 16 15 16 16 18 17 17 16 16 16 16 14 15 15 17 16 16 16 16 16 16 16 16 17 17 16 17 16 16 16 17 17 18 18 19 18 17 17 17 18 19 19 18
17 16 16 16 18 18 16 14 15 16 16 16 16 14 15 16 16 17 17 17 17 17 17 18 17 18 18 18 17 18 17 17 18 18 18 18 18 19 19 18 17 18 18 18
16 16 18 20 18 17 16 15 14 14 15 16 16 16 16 16 17 17 17 17 16 16 17 17 17 17 17 18 18 19 18 17 18 18 18 19 19 19 19 19 19 17 18 16
17 16 17 17 16 14 14 13 13 14 15 16 16 17 16 15 16 16 16 16 16 16 18 18 18 18 18 18 19 19 18 17 17 18 18 18 18 19 19 19 20 12 12 11